Hourly Data Report for May 21, 2022

MUSKOKA
ONTARIO
Current Station Operator: NAVCAN

44°58'29.000" N
79°18'12.000" W
281.90 m
6115529
71532
YQA

Download Data

Hourly Data (May 2022)
Hourly Data Report for May 21, 2022
TIME
LST
Temp Definition
°C
Dew Point Definition
°C
Rel Hum Definition
%
Precip. Amount Definition
mm

Wind Dir Definition
10's deg

Wind Spd Definition
km/h
Visibility Definition
km
Stn Press Definition
kPa
Hmdx Definition


Wind Chill Definition


Weather Definition


00:00 20.7 17.8 83 0.0 18 15 16.1 97.10 27   LegendNANA
01:00 19.9 17.7 87 0.0 20 9 16.1 97.12     LegendNANA
02:00 18.6 17.2 92 0.0 20 5 16.1 97.24     LegendNANA
03:00 17.2 15.7 91 0.0 LegendMM 4 16.1 97.29     LegendNANA
04:00 16.5 15.5 94 0.0 27 9 16.1 97.45     LegendNANA
05:00 15.3 14.5 95 0.0 24 5 16.1 97.51     LegendNANA
06:00 15.2 14.3 94 0.0 26 11 16.1 97.67     LegendNANA
07:00 16.1 14.2 88 0.0 21 9 16.1 97.67     LegendNANA
08:00 17.3 14.4 83 0.0 17 11 16.1 97.58     LegendNANA
09:00 17.5 14.6 83 0.0 28 13 16.1 97.70     LegendNANA
10:00 16.1 13.8 86 0.0 28 11 16.1 97.85     LegendNANA
11:00 17.4 13.6 78 0.0 28 11 16.1 97.93     LegendNANA
12:00 17.4 12.4 72 0.0 28 13 16.1 98.03     LegendNANA
13:00 15.3 12.3 82 0.5 LegendMM 4 16.1 98.01     Moderate Rain
14:00 15.8 13.0 83 0.5 LegendMM 4 16.1 97.95     LegendNANA
15:00 17.5 9.2 58 0.0 30 17 16.1 98.05     LegendNANA
16:00 18.4 8.3 51 0.0 28 11 16.1 98.19     LegendNANA
17:00 18.9 9.3 53 0.0 27 11 16.1 98.14     LegendNANA
18:00 16.8 8.1 56 0.0 26 9 16.1 98.18     LegendNANA
19:00 15.8 8.7 62 0.0 26 9 16.1 98.19     LegendNANA
20:00 13.3 8.8 74 0.0 30 5 16.1 98.25     LegendNANA
21:00 13.0 8.9 76 0.0 24 5 16.1 98.27     LegendNANA
22:00 12.9 9.4 79 0.0 27 5 16.1 98.30     LegendNANA
23:00 12.7 9.7 82 0.0 28 5 16.1 98.37     LegendNANA

Notes on Data Quality.

Legend

  • E = Estimated
  • M = Missing
  • NA = Not Available*
  • [empty] = Indicates an unobserved value
Date modified: